Regional Weather Roundup
Issued by NWS

Home | Current Version | Previous Version | Text Only | Print | Product List | Glossary On
Versions: 1 2 3 4 5 6 7 8 9 10 11 12 13 14 15 16 17 18 19 20 21 22 23 24 25 26 27
000
ASUS42 KTBW 261516
RWRFL
FLORIDA REGIONAL WEATHER ROUNDUP
NATIONAL WEATHER SERVICE TAMPA BAY RUSKIN FL
1100 AM EDT SUN MAR 26 2017

NOTE: "FAIR" INDICATES FEW OR NO CLOUDS BELOW 12,000 FEET WITH NO
SIGNIFICANT WEATHER AND/OR OBSTRUCTIONS TO VISIBILITY.

FLZ001>010-012>015-112-114-115-261600-
PANHANDLE FLORIDA

CITY           SKY/WX    TMP DP  RH WIND       PRES   REMARKS
PENSACOLA      PTSUNNY   75  67  76 SE9       30.10R
PENSACOLA NAS  SUNNY     74  66  76 SE8       30.10R
CRESTVIEW      CLOUDY    71  66  84 S3        30.13R
DUKE FIELD     PTSUNNY   71  66  84 SE10      30.11R
VALPARAISO     PTSUNNY   72  66  83 SE14      30.11R
MARY ESTHER    CLOUDY    72  68  87 SE12      30.10R
PANAMA CITY    PTSUNNY   72  64  76 S10       30.12R
TYNDALL AFB    SUNNY     74  62  64 S18       30.12R
APALACHICOLA   SUNNY     74  66  76 S14       30.13R

STATION/POSITION SKY/WX   TEMP    WIND        PRES    WAVE   SWELL
                          AIR SEA DIR/SP/G            HT/PER HT/PER
                          (F)     (DEG/KT/KT) (MB)    (FT/S) (FT/S)
30.1N   87.6W              71 69  110/  2/  2 1018.8R   4/ 7   3/ 7
29.2N   88.2W              73 73  170/  8/ 10 1018.5R   4/ 7   3/ 7
28.8N   86.0W              71 71              1019.3    3/ 7   2/ 7
PANAMA CITY BEAC           69 70  130/ 11/ 13 1020.1R
TOWER C                    69     150/ 14/ 15 1020.7R
28.5N   84.5W              70 69  150/ 10/ 12 1019.8R   2/ 6   2/ 6

$$
FLZ011-016>038-118-127-128-134-139-239-261600-
NORTH FLORIDA

CITY           SKY/WX    TMP DP  RH WIND       PRES   REMARKS
MARIANNA       SUNNY     75  58  55 S8        30.11S
TALLAHASSEE    PTSUNNY   75  63  66 SE9       30.14R
PERRY          CLOUDY    75  60  61 S8        30.16R
CROSS CITY     SUNNY     75  61  60 S9        30.16S
LAKE CITY      FAIR      73  61  64 SE12      30.17S
GAINESVILLE    SUNNY     75  61  61 SE12      30.17S
WILLISTON      SUNNY     77  63  61 SE6       30.17S
PALATKA        FAIR      75  61  60 S9        30.18S
MAYPORT NAS    SUNNY     76  60  57 SE8       30.18S
JACKSONVILLE   MOSUNNY   76  57  51 SE12      30.17S
JAX NAS        MOSUNNY   72  60  66 S8        30.19R
FERNANDINA BEA FAIR      75  63  64 SE3       30.17S
ST AUGUSTINE   MOSUNNY   77  56  48 S7        30.19S

STATION/POSITION SKY/WX   TEMP    WIND        PRES    WAVE   SWELL
                          AIR SEA DIR/SP/G            HT/PER HT/PER
                          (F)     (DEG/KT/KT) (MB)    (FT/S) (FT/S)
SHELL POINT      NOT AVBL
KEATON BEACH               70     150/ 12/ 13 1020.9R
CEDAR KEY                  68     140/  7/  9 1021.5R
FERNANDINA                 73 66  130/  5/  8 1022.9R
30.7N   81.3W                 65                N/A     3/10   2/11
MAYPORT                    72 66  130/  6/  8 1022.4R
31.4N   80.9W              66 62  200/  2/  4 1022.0    4/ 9   3/ 9
ST AUGUSTINE               69 67  100/  3/  3 1022.9R

$$
FLZ040-043>046-052-053-057-058-063-144-261600-
INTERIOR CENTRAL FLORIDA

CITY           SKY/WX    TMP DP  RH WIND       PRES   REMARKS
OCALA          SUNNY     75  61  60 SE12      30.17S
THE VILLAGES     N/A     77  66  69 MISG      30.07S
LEESBURG       SUNNY     75  61  61 S6        30.17S
SANFORD        SUNNY     77  61  57 SE7       30.16F
ORLANDO EXEC   MOSUNNY   77  61  57 VRB7      30.16S
ORLANDO INTL   MOSUNNY   77  61  57 SE10      30.16S
KISSIMMEE      MOSUNNY   76  63  64 SE6       30.17S
WINTER HAVEN   SUNNY     75  60  59 SE8       30.17S
LAKELAND       SUNNY     73  61  64 SE10      30.16S
OKEECHOBEE     PTSUNNY  N/A N/A N/A E9        30.15F

$$
FLZ041-047-054-059-064-141-147-261600-
EAST CENTRAL FLORIDA

CITY           SKY/WX    TMP DP  RH WIND       PRES   REMARKS
ORMOND BEACH   MOSUNNY   75  63  64 E12       30.17S
DAYTONA BEACH  MOSUNNY   74  59  59 VRB5      30.17S
DELAND         MOSUNNY   77  61  57 E8        30.16F
NEW SMYRNA BEA MOSUNNY   77  59  53 SE5       30.18S
JFK SPACE CTR  SUNNY     76  60  57 SE9       30.15S
TITUSVILLE     PTSUNNY   75  59  57 E9        30.17R
CAPE CANAVERAL SUNNY     79  59  50 E12       30.15S
PATRICK AFB    SUNNY     76  65  67 E10       30.15S
MELBOURNE      MOSUNNY   78  61  55 E12       30.15S
VERO BEACH     SUNNY     78  62  57 SE15      30.15S
FT PIERCE      MOSUNNY   77  61  57 E14       30.15S

STATION/POSITION SKY/WX   TEMP    WIND        PRES    WAVE   SWELL
                          AIR SEA DIR/SP/G            HT/PER HT/PER
                          (F)     (DEG/KT/KT) (MB)    (FT/S) (FT/S)
TRIDENT PIER               75 71  110/  5/  9 1022.4S
28.4N   80.5W                 71                N/A     4/10
27.5N   80.2W                 72                N/A     5/ 8   2/11

$$
FLZ050-056-061-142-242-148-248-149-249-151-251-155-255-
160-260-261600-
WEST CENTRAL FLORIDA

CITY           SKY/WX    TMP DP  RH WIND       PRES   REMARKS
CRYSTAL RIVER  FAIR      77  59  53 SE8       30.16S
INVERNESS      FAIR      75  63  64 SE5       30.17S
BROOKSVILLE    SUNNY     77  60  55 SE8       30.16S
CLEARWATER AIR FAIR      73  64  73 SE7       30.15S
ST PETE CLEARW SUNNY     76  63  64 SE13      30.15S
TAMPA INTL     PTSUNNY   74  62  66 SE9       30.16R
TAMPA EXEC     MOSUNNY   79  61  53 SE5       30.16S
PLANT CITY     PTSUNNY   77  63  61 SE8       30.17S
MACDILL AFB    MOSUNNY   74  67  76 S7        30.15R
PETER O KNIGHT MOSUNNY   77  66  69 S7        30.16S
ST PETERSBURG  SUNNY     73  65  75 SE5       30.14R
SARASOTA       MOSUNNY   77  63  61 SE12      30.13S
VENICE         FAIR      77  64  65 SE15      30.14S

STATION/POSITION SKY/WX   TEMP    WIND        PRES    WAVE   SWELL
                          AIR SEA DIR/SP/G            HT/PER HT/PER
                          (F)     (DEG/KT/KT) (MB)    (FT/S) (FT/S)
27.3N   84.2W                 71                N/A     2/ 7
CLEARWATER BEACH NOT AVBL
MIDDLE TAMPA BAY           73     150/ 10/ 11 1021.0R
VENICE                     71 69  110/  7/  9 1020.3R

$$
FLZ066-069-070-075>078-162-262-165-265-261600-
SOUTHWEST FLORIDA AND KEYS

CITY           SKY/WX    TMP DP  RH WIND       PRES   REMARKS
PUNTA GORDA    MOSUNNY   78  62  57 SE9       30.15F
FT MYERS       SUNNY     79  64  60 E14       30.13F
SOUTHWEST INTL MOSUNNY   77  61  57 E17       30.13F
NAPLES         SUNNY     78  65  63 NE13      30.12F
IMMOKALEE      CLOUDY    73  64  73 E13       30.14S
MARATHON       MOSUNNY   82  66  58 E12G18    30.10R
KEY WEST NAS   MOSUNNY   80  64  58 E16       30.09S
KEY WEST INTL  MOSUNNY   80  66  62 E12       30.10R

STATION/POSITION SKY/WX   TEMP    WIND        PRES    WAVE   SWELL
                          AIR SEA DIR/SP/G            HT/PER HT/PER
                          (F)     (DEG/KT/KT) (MB)    (FT/S) (FT/S)
NAPLES                        72              1020.0F
26.0N   85.6W              74 77   90/ 16/ 19 1019.2R   5/ 8   3/ 8
DRY TORTUGAS               73      70/ 15/ 16 1019.1S
SAND KEY                   76     120/ 15/ 17 1019.4R
LONG KEY                   75 74  130/ 10/ 13 1019.4R
MOLASSES REEF              75 76  110/ 16/ 18 1019.3R

$$
FLZ067-068-071>074-168-172>174-261600-
SOUTHEAST FLORIDA

CITY           SKY/WX    TMP DP  RH WIND       PRES   REMARKS
W PALM BEACH   PTSUNNY   75  59  57 E16       30.15R
FT LAUDER-EXEC MOSUNNY   77  63  61 E14       30.13R
FT LAUDERDALE  PTSUNNY   77  62  59 E15       30.11R
POMPANO BEACH  PTSUNNY   76  63  64 E14       30.13R
PEMBROKE PINES MOSUNNY   76  63  64 E16       30.14R
OPA LOCKA      MOSUNNY   75  64  68 SE12G21   30.13R
MIAMI          PTSUNNY   77  62  59 E10       30.12R
WEST KENDALL   PTSUNNY   80  62  54 E13G25    30.12R
HOMESTEAD      SUNNY     77  65  66 E13       30.11R

STATION/POSITION SKY/WX   TEMP    WIND        PRES    WAVE   SWELL
                          AIR SEA DIR/SP/G            HT/PER HT/PER
                          (F)     (DEG/KT/KT) (MB)    (FT/S) (FT/S)
PORT EVERGLADES            76      80/ 10/ 15 1020.0R
VIRGINIA KEY               74      80/ 13/ 16 1020.1R
LAKE WORTH                         90/ 13/ 15   N/A
FOWEY ROCKS                74 75   90/ 18/ 19 1020.0R
SETTLEMENT POINT           71      80/ 16/ 18 1021.0R

$$





USA.gov is the U.S. government's official web portal to all federal, state and local government web resources and services.